User: anonymous   Login
Location: Unspecified
(0.0000°N, 0.0000°E)
Time: 04:31:46
(UTC+00:00)
Language:

STARLINK-36132 - Orbit

View from above orbital plane
View from above orbital plane
View from above satellite
View from above satellite

Ground track
Ground track

The orbit is defined by the following mean orbital elements,

1 67028U          26145.38981110 +.00000000 +00000-0 +23163-3 0 00003
2 67028  70.0005 261.1865 0003378 268.9670  91.1102 14.98335446    06
Epoch (UTC): 25 May 2026 09:21:19
Eccentricity: 0.0003378
inclination: 70.0005°
perigee height: 570 km
apogee height: 574 km
right ascension of ascending node: 261.1865°
argument of perigee: 268.9670°
revolutions per day: 14.98335446
mean anomaly at epoch: 91.1102°

The dashed part of the orbit path shows where the satellite is in the earth's shadow,  

DLR